Stations météo

réclame
Mon MeteoGroup
Saint-Brieuc, France (7120): Température de l'air & dewpoint: 15.06.2018 12:00:00 - 21.06.2018 12:00:00 (CEST)Saint-Brieuc, France (7120): Température de l'air 5cm: 15.06.2018 12:00:00 - 21.06.2018 12:00:00 (CEST)Saint-Brieuc, France (7120): Température de l'air -20cm & Température de l'air -100cm: 15.06.2018 12:00:00 - 21.06.2018 12:00:00 (CEST)Saint-Brieuc, France (7120): Vitesse du vent & gusts: 15.06.2018 12:00:00 - 21.06.2018 12:00:00 (CEST)Saint-Brieuc, France (7120): Direction du vent: 15.06.2018 12:00:00 - 21.06.2018 12:00:00 (CEST)Saint-Brieuc, France (7120): reduced air pressure: 15.06.2018 12:00:00 - 21.06.2018 12:00:00 (CEST)Saint-Brieuc, France (7120): visibility: 15.06.2018 12:00:00 - 21.06.2018 12:00:00 (CEST)Saint-Brieuc, France (7120): Ensoleillement: 15.06.2018 12:00:00 - 21.06.2018 12:00:00 (CEST)Saint-Brieuc, France (7120): Quantités de précipitations: 15.06.2018 12:00:00 - 21.06.2018 12:00:00 (CEST)
Date & Time tt [°C] td [°C] tt 5cm [°C] tt -20cm [°C] tt -100cm [°C] ff [km/h] ff [knt] fx [km/h] fx [knt] dd ppp [hPa] vv [km] sd [min] rr [mm]
21.06.2018 12:00:00 14,8 8,3 19,8 18,6 16,0 29 15 45 24 NNE 1026,5 20 60 0,0
21.06.2018 11:00:00 14,6 8,5 17,6 18,6 15,9 30 16 46 25 NNE 1026,2 20 60 0,0
21.06.2018 10:00:00 14,1 10,1 15,0 18,7 15,9 27 15 41 22 NNE 1026,0 20 25 0,0
21.06.2018 09:00:00 13,6 11,1 13,3 18,8 15,9 24 13 37 20 NNE 1025,5 20 4 0,0
21.06.2018 08:00:00 13,0 10,9 12,5 19,0 15,9 18 10 28 15 N 1025,2 20 0 0,0
21.06.2018 07:00:00 12,4 10,5 11,6 19,2 15,9 17 9 32 17 N 1024,7 20 0 0,0
21.06.2018 06:00:00 13,2 11,3 12,5 19,3 15,9 16 9 27 14 N 1023,8 20 0 0,0
21.06.2018 05:00:00 14,0 13,4 13,9 19,5 15,9 13 7 22 12 NNW 1023,5 20 0 0,2
21.06.2018 04:00:00 14,2 13,9 14,3 19,7 15,9 12 7 22 12 NW 1023,5 2,7 0 0,0
21.06.2018 03:00:00 14,5 14,2 14,5 19,8 15,9 10 6 22 12 NNW 1023,2 7 0 0,0
21.06.2018 02:00:00 14,5 14,3 - - - 8 4 16 9 NW 1023,4 2,0 - -
21.06.2018 01:00:00 14,2 14,0 14,2 20,1 15,9 10 5 18 10 NW 1023,6 2,5 0 0,0
21.06.2018 00:00:00 14,0 13,8 14,3 20,3 15,9 13 7 29 16 NNW 1023,7 3,2 0 0,0
20.06.2018 23:00:00 14,5 14,3 14,6 20,4 15,9 2 1 10 5 N 1022,9 0,2 0 0,0
20.06.2018 22:00:00 14,6 14,4 14,9 20,6 15,9 6 4 10 5 N 1022,4 0,2 0 0,0
20.06.2018 21:00:00 14,5 14,2 15,2 20,6 15,9 7 4 16 8 NE 1022,1 0,2 0 0,0
20.06.2018 20:00:00 15,7 14,4 18,3 20,6 15,9 9 5 18 10 NE 1022,1 2,4 50 0,0
20.06.2018 19:00:00 16,5 14,7 22,2 20,5 15,9 12 7 19 10 NE 1022,0 19 60 0,0
20.06.2018 18:00:00 19,1 16,1 25,3 20,3 15,9 14 7 26 14 NNE 1021,7 20 60 0,0
20.06.2018 17:00:00 20,6 16,8 27,5 20,0 15,9 16 9 23 12 NE 1021,8 19 60 0,0
20.06.2018 16:00:00 22,6 17,1 29,2 19,6 15,8 11 6 19 10 NE 1021,7 20 60 0,0
20.06.2018 15:00:00 22,2 17,3 29,3 19,1 15,8 10 5 21 11 NE 1021,9 20 60 0,0
20.06.2018 14:00:00 21,9 17,3 29,5 18,8 15,9 10 5 17 9 NE 1022,1 20 60 0,0
20.06.2018 13:00:00 21,0 16,8 29,1 18,4 15,8 8 4 17 9 NE 1022,6 20 60 0,0
20.06.2018 12:00:00 20,3 17,5 24,1 18,3 15,9 4 2 11 6 NNE 1022,7 17 48 0,0
20.06.2018 11:00:00 17,2 16,7 18,5 18,2 15,8 3 2 10 5 E 1022,9 10 5 0,0
20.06.2018 10:00:00 15,9 15,7 16,9 18,1 15,8 3 1 8 4 ESE 1023,3 1,8 0 0,0
20.06.2018 09:00:00 15,1 14,9 15,2 18,2 15,8 3 1 8 4 E 1023,4 0,2 0 0,0
20.06.2018 08:00:00 14,1 13,9 14,6 18,2 15,8 2 1 6 4 SSE 1023,2 0,3 0 0,0
20.06.2018 07:00:00 14,2 14,0 14,1 18,3 15,8 5 3 8 4 ENE 1023,2 0,2 0 0,2
20.06.2018 06:00:00 14,0 13,8 14,0 18,4 15,8 3 1 8 4 E 1023,2 0,2 0 0,0
20.06.2018 05:00:00 14,2 14,0 14,4 18,5 15,8 6 3 9 5 SE 1023,3 0,1 0 0,0
20.06.2018 04:00:00 14,2 14,0 14,3 18,6 15,8 5 3 10 5 ENE 1023,6 0,2 0 0,0
20.06.2018 03:00:00 14,2 14,0 14,2 18,7 15,8 6 3 9 5 E 1023,9 0,3 0 0,0
20.06.2018 02:00:00 14,2 14,0 14,2 18,8 15,8 3 1 5 3 ENE 1024,2 0,2 0 0,0
20.06.2018 01:00:00 14,3 14,1 14,5 18,9 15,8 5 3 9 5 NE 1024,6 0,3 0 0,0
20.06.2018 00:00:00 14,4 14,1 14,5 19,1 15,8 6 3 10 6 NNE 1024,8 0,4 0 0,0
19.06.2018 23:00:00 14,7 14,2 14,0 19,2 15,7 8 4 11 6 NE 1024,9 11 0 0,0
19.06.2018 22:00:00 14,9 13,4 14,2 19,3 15,8 9 5 11 6 ENE 1024,4 20 48 0,0
19.06.2018 21:00:00 16,9 14,4 18,7 19,3 15,8 10 6 17 9 NE 1024,6 20 60 0,0
19.06.2018 20:00:00 17,7 14,6 21,5 19,2 15,8 15 8 20 11 NE 1024,8 20 60 0,0
19.06.2018 19:00:00 18,6 15,3 23,5 19,1 15,7 15 8 23 12 NE 1024,9 20 60 0,0
19.06.2018 18:00:00 19,5 15,6 25,3 18,9 15,7 15 8 26 14 NE 1025,1 20 60 0,0
19.06.2018 17:00:00 21,0 16,2 24,1 18,7 15,7 14 8 21 11 ENE 1025,3 20 41 0,0
19.06.2018 16:00:00 21,5 17,1 24,9 18,4 15,7 6 4 13 7 NE 1025,5 20 4 0,0
19.06.2018 15:00:00 20,7 15,5 24,4 18,2 15,7 4 2 13 7 ESE 1025,8 20 0 0,0
19.06.2018 14:00:00 19,8 14,8 22,7 18,1 15,7 6 3 14 8 NW 1026,3 20 0 0,0
19.06.2018 13:00:00 18,7 15,0 20,9 18,0 15,8 7 4 12 7 WNW 1026,6 20 0 0,0
19.06.2018 12:00:00 17,7 14,6 19,3 17,9 15,8 6 3 13 7 NW 1026,6 20 0 0,0
19.06.2018 11:00:00 17,5 14,8 17,9 17,8 15,7 3 1 11 6 SSW 1026,7 20 0 0,0
19.06.2018 10:00:00 16,9 14,5 17,0 17,8 15,7 6 3 14 8 NNW 1027,1 20 8 0,0
19.06.2018 09:00:00 16,4 14,8 16,7 17,8 15,7 11 6 16 9 W 1026,8 6 22 0,0
19.06.2018 08:00:00 15,9 14,8 15,4 17,9 15,7 6 3 13 7 WNW 1026,8 20 15 0,0
19.06.2018 07:00:00 15,3 14,3 15,1 18,0 15,7 9 5 18 10 WNW 1026,5 11 0 0,0
19.06.2018 06:00:00 15,5 14,0 15,4 18,1 15,7 14 7 21 12 WNW 1026,3 20 0 0,0
19.06.2018 05:00:00 15,6 14,1 15,4 18,2 15,7 14 7 21 12 WNW 1025,9 20 0 0,0
19.06.2018 04:00:00 15,5 14,2 15,3 18,3 15,7 12 6 24 13 WNW 1026,0 20 0 0,0
19.06.2018 03:00:00 15,9 14,3 15,9 18,4 15,8 17 9 26 14 W 1026,1 20 0 0,0
19.06.2018 02:00:00 16,3 14,8 16,2 18,5 15,7 10 6 21 12 W 1026,1 20 0 0,0
19.06.2018 01:00:00 16,6 14,8 16,5 18,6 15,7 12 7 25 13 WSW 1026,3 20 0 0,0
19.06.2018 00:00:00 17,4 15,0 17,2 18,7 15,8 16 9 26 14 WSW 1026,5 20 0 0,0
18.06.2018 23:00:00 17,3 15,1 17,3 18,7 15,8 0 0 12 6 N 1026,1 20 0 0,0
18.06.2018 22:00:00 18,5 15,0 18,1 18,7 15,8 9 5 21 12 N 1025,4 20 0 0,0
18.06.2018 21:00:00 20,3 16,3 20,2 18,7 15,8 10 5 21 11 WSW 1024,9 20 0 0,0
18.06.2018 20:00:00 20,7 16,1 21,2 18,6 15,7 10 5 22 12 WSW 1024,7 20 3 0,0
18.06.2018 19:00:00 21,0 16,2 21,0 18,5 15,8 11 6 19 10 W 1024,5 20 0 0,0
18.06.2018 18:00:00 21,1 15,9 22,5 18,3 15,8 10 5 22 12 W 1024,6 20 0 0,0
18.06.2018 17:00:00 21,5 15,3 24,2 17,9 15,7 10 6 20 11 WNW 1024,7 20 29 0,0
18.06.2018 16:00:00 20,8 14,4 23,5 17,5 15,8 11 6 22 12 WNW 1024,7 20 55 0,0
18.06.2018 15:00:00 18,8 13,9 21,9 17,2 15,8 15 8 26 14 WNW 1025,1 20 37 0,0
18.06.2018 14:00:00 18,4 12,8 20,7 17,0 15,7 17 9 30 16 WNW 1025,1 20 47 0,0
18.06.2018 13:00:00 17,7 12,2 18,4 16,8 15,7 20 11 31 17 WNW 1025,0 20 34 0,0
18.06.2018 12:00:00 16,2 12,4 15,6 16,8 15,7 17 9 30 16 WNW 1024,9 20 1 0,0
18.06.2018 11:00:00 14,7 12,9 14,8 16,8 15,8 19 10 30 16 WNW 1024,7 20 0 0,0
18.06.2018 10:00:00 14,7 13,7 14,9 16,8 15,8 11 6 23 12 WNW 1024,0 3,6 0 0,2
18.06.2018 09:00:00 14,7 12,9 13,9 16,8 15,8 13 7 25 13 W 1023,3 20 0 0,0
18.06.2018 08:00:00 14,1 12,7 13,6 16,8 15,7 16 9 21 12 W 1023,0 20 0 0,0
18.06.2018 07:00:00 13,9 12,8 13,4 16,9 15,8 11 6 20 11 WSW 1022,7 13 0 0,0
18.06.2018 06:00:00 13,8 12,9 13,4 17,0 15,8 14 7 21 12 W 1022,3 20 0 0,0
18.06.2018 05:00:00 13,8 13,2 13,5 17,1 15,8 16 8 31 17 WNW 1022,2 4,7 0 0,2
18.06.2018 04:00:00 15,1 13,5 14,6 17,1 15,8 6 4 14 7 WSW 1021,5 20 0 0,0
18.06.2018 03:00:00 15,1 13,6 14,5 17,2 15,8 8 4 17 9 WSW 1021,5 20 0 0,0
18.06.2018 02:00:00 15,3 14,0 14,7 17,2 15,8 11 6 23 12 W 1021,6 20 0 0,0
18.06.2018 01:00:00 15,7 14,7 15,4 17,3 15,8 12 7 22 12 W 1021,4 2,1 0 0,2
18.06.2018 00:00:00 16,3 14,7 16,1 17,3 15,8 12 6 23 13 WSW 1021,4 20 0 0,0
17.06.2018 23:00:00 16,6 14,8 16,4 17,4 15,8 17 9 27 14 W 1020,9 20 0 0,0
17.06.2018 22:00:00 16,9 14,5 16,8 17,4 15,8 16 9 30 16 WSW 1020,5 20 0 0,0
17.06.2018 21:00:00 17,4 14,7 17,5 17,3 15,8 16 9 34 19 WSW 1020,2 20 0 0,0
17.06.2018 20:00:00 17,5 14,9 18,0 17,3 15,8 13 7 32 18 SW 1020,0 20 0 0,0
17.06.2018 19:00:00 17,6 14,7 18,0 17,2 15,8 16 8 32 17 SW 1019,9 20 1 0,0
17.06.2018 18:00:00 17,4 14,1 18,5 17,1 15,8 20 11 41 22 SW 1019,9 20 4 0,0
17.06.2018 17:00:00 17,9 13,4 19,4 17,0 15,8 21 11 40 21 SW 1019,9 20 13 0,0
17.06.2018 16:00:00 16,9 12,6 17,3 16,9 15,8 21 11 44 24 SW 1020,3 20 0 0,0
17.06.2018 15:00:00 16,8 11,9 17,8 16,8 15,8 20 11 39 21 SW 1020,3 20 0 0,0
17.06.2018 14:00:00 18,1 11,9 18,8 16,6 15,8 22 12 38 21 SW 1020,1 20 0 0,0
17.06.2018 13:00:00 17,1 11,1 16,1 16,4 15,8 18 10 37 20 WSW 1020,5 20 10 0,0
17.06.2018 12:00:00 17,5 11,5 19,2 16,3 15,8 20 11 35 19 SW 1020,3 20 39 0,0
17.06.2018 11:00:00 15,9 10,2 15,7 16,3 15,8 17 9 30 16 WSW 1020,8 20 12 0,0
17.06.2018 10:00:00 14,6 10,4 14,2 16,3 15,8 13 7 23 13 WSW 1020,9 20 0 0,0
17.06.2018 09:00:00 13,5 10,3 13,4 16,3 15,8 12 7 24 13 WSW 1020,8 20 0 0,0
17.06.2018 08:00:00 13,0 10,0 12,6 16,3 15,8 10 6 20 11 SW 1020,5 20 0 0,0
17.06.2018 07:00:00 12,6 9,8 12,2 16,4 15,8 8 4 14 7 SW 1020,3 20 0 0,0
17.06.2018 06:00:00 12,6 9,8 12,2 16,5 15,8 8 4 15 8 SW 1020,0 20 0 0,0
17.06.2018 05:00:00 12,6 9,2 12,2 16,6 15,9 9 5 17 9 WSW 1020,1 20 0 0,0
17.06.2018 04:00:00 12,6 9,2 11,8 16,7 15,8 10 5 16 8 WSW 1020,1 20 0 0,0
17.06.2018 03:00:00 12,5 9,3 11,9 16,8 15,9 7 4 14 8 WSW 1020,2 20 0 0,0
17.06.2018 02:00:00 12,7 8,6 12,0 16,9 15,8 9 5 14 8 WSW 1020,2 20 0 0,0
17.06.2018 01:00:00 12,6 8,7 10,8 17,1 15,9 9 5 24 13 W 1020,4 20 0 0,0
17.06.2018 00:00:00 11,7 8,0 10,1 17,2 15,8 11 6 18 10 WNW 1020,2 20 0 0,0
16.06.2018 23:00:00 13,0 8,9 12,2 17,3 15,9 8 5 23 13 W 1020,1 20 0 0,0
16.06.2018 22:00:00 13,6 9,0 13,3 17,4 15,9 13 7 20 11 WNW 1019,5 20 0 0,0
16.06.2018 21:00:00 14,2 9,4 14,4 17,4 15,8 13 7 23 13 WNW 1019,3 20 15 0,0
16.06.2018 20:00:00 14,5 10,9 14,7 17,5 15,9 14 8 26 14 WNW 1018,8 20 0 0,0
16.06.2018 19:00:00 14,7 11,5 14,0 17,4 15,8 16 9 29 15 NW 1018,4 20 0 0,2
16.06.2018 18:00:00 13,7 12,4 13,2 17,4 15,9 15 8 33 18 WNW 1018,3 10 0 0,4
16.06.2018 17:00:00 17,3 12,4 18,2 17,3 15,9 13 7 33 18 SW 1017,7 20 1 0,0
16.06.2018 16:00:00 17,9 12,3 18,8 17,1 15,9 16 9 36 19 SW 1017,4 20 4 0,0
16.06.2018 15:00:00 18,3 12,1 20,1 16,9 15,8 18 10 36 20 SW 1017,3 20 23 0,0
16.06.2018 14:00:00 16,9 11,0 17,5 16,8 15,9 17 9 36 20 WSW 1017,6 20 5 0,0
16.06.2018 13:00:00 16,6 11,7 17,1 16,7 15,9 18 10 36 19 SW 1017,7 20 1 0,0
16.06.2018 12:00:00 16,1 10,4 16,3 16,6 15,9 12 7 29 16 SW 1017,6 20 1 0,0
16.06.2018 11:00:00 16,3 11,0 17,1 16,5 15,9 14 8 27 15 WSW 1017,6 20 17 0,0
16.06.2018 10:00:00 15,3 10,7 15,8 16,5 15,8 10 6 23 12 SW 1017,6 20 18 0,0
16.06.2018 09:00:00 13,8 10,8 13,1 16,5 15,9 9 5 18 10 SW 1017,9 20 6 0,0
16.06.2018 08:00:00 13,3 10,7 11,9 16,6 15,9 7 4 13 7 SSW 1017,8 20 32 0,0
16.06.2018 07:00:00 12,4 9,9 11,6 16,6 15,8 6 4 13 7 SSW 1017,5 20 0 0,0
16.06.2018 06:00:00 12,0 9,6 11,5 16,7 15,9 7 4 15 8 WSW 1017,5 20 0 0,0
16.06.2018 05:00:00 12,1 9,7 11,6 16,8 15,9 6 3 12 6 SSW 1017,9 20 0 0,0
16.06.2018 04:00:00 12,1 10,0 11,2 16,9 15,9 4 2 9 5 S 1018,2 20 0 0,0
16.06.2018 03:00:00 11,9 9,8 10,9 17,0 15,9 5 3 10 5 SSW 1018,4 20 0 0,0
16.06.2018 02:00:00 11,9 9,8 11,0 17,1 15,9 4 2 11 6 S 1018,3 20 0 0,0
16.06.2018 01:00:00 11,9 10,0 9,3 17,2 15,9 5 3 9 5 S 1018,9 20 0 0,0
16.06.2018 00:00:00 12,0 9,9 9,7 17,4 15,9 5 3 9 5 S 1019,1 20 0 0,0
15.06.2018 23:00:00 12,3 10,4 9,7 17,5 15,9 3 1 6 3 SSE 1019,2 20 0 0,0
15.06.2018 22:00:00 12,7 10,2 10,8 17,5 15,9 4 2 11 6 ENE 1019,1 20 15 0,0
15.06.2018 21:00:00 14,8 10,2 16,3 17,5 15,9 5 3 13 7 ENE 1019,2 20 60 0,0
15.06.2018 20:00:00 15,2 10,2 16,6 17,5 15,9 9 5 16 8 ENE 1019,0 20 41 0,0
15.06.2018 19:00:00 15,1 10,5 16,4 17,5 15,9 9 5 18 10 ENE 1019,5 20 5 0,0
15.06.2018 18:00:00 15,2 10,0 16,6 17,5 15,9 10 6 23 12 ENE 1019,8 20 2 0,0
15.06.2018 17:00:00 15,6 11,2 17,3 17,4 15,9 13 7 20 11 ENE 1020,0 20 0 0,0
15.06.2018 16:00:00 15,7 10,2 16,9 17,3 15,8 10 6 21 11 NE 1020,0 20 8 0,0
15.06.2018 15:00:00 15,3 10,5 18,3 17,2 15,9 14 8 22 12 ENE 1019,9 20 1 0,0
15.06.2018 14:00:00 15,9 11,7 16,5 17,1 15,9 11 6 22 12 NE 1020,0 20 6 0,0
15.06.2018 13:00:00 14,7 10,7 16,9 17,0 15,9 14 7 21 11 ENE 1019,8 19 4 0,0
15.06.2018 12:00:00 15,2 11,0 16,6 16,8 15,9 9 5 23 12 NNE 1019,6 20 25 0,0

tt = Température de l'air
td = dewpoint
tt 5cm = Température de l'air 5cm
tt -20cm = Température de l'air -20cm
tt -100cm = Température de l'air -100cm
ff = Vitesse du vent
fx = gusts
dd = Direction du vent
ppp = reduced air pressure
vv = visibility
sd = Ensoleillement
rr = Quantités de précipitations

stations d'obs. à proximité